DW5861 Weather Reports


time (UTC)temp
C
wind
direction
speed
KPH
gust
KPH
rain 1hr
cm
rain 24hr
cm
rain mn
cm
humidity
%
barometer
mb
20260506110504 23 181 3.2 6.4 0.00 0.00 0.00 92 1008.9
20260506110004 23 179 3.2 6.4 0.00 0.00 0.00 92 1008.8
20260506105525 23 171 3.2 6.4 0.00 0.00 0.00 92 1008.7
20260506105004 23 168 3.2 6.4 0.00 0.00 0.00 92 1008.6
20260506104504 23 164 3.2 8.0 0.00 0.00 0.00 92 1008.6
20260506104025 23 167 3.2 8.0 0.00 0.00 0.00 92 1008.6
20260506103504 23 174 3.2 6.4 0.00 0.00 0.00 92 1008.6
20260506103004 23 176 3.2 6.4 0.00 0.00 0.00 92 1008.5
20260506102504 23 178 3.2 8.0 0.00 0.00 0.00 92 1008.5
20260506102004 23 169 3.2 8.0 0.00 0.00 0.00 92 1008.5
20260506101504 23 170 3.2 6.4 0.00 0.00 0.00 92 1008.5
20260506101004 23 172 1.6 4.8 0.00 0.00 0.00 92 1008.5
20260506100504 23 169 1.6 8.0 0.00 0.00 0.00 92 1008.4
20260506100004 23 173 3.2 8.0 0.00 0.00 0.00 92 1008.5
20260506095504 23 173 1.6 4.8 0.00 0.00 0.00 92 1008.4
20260506095004 23 174 1.6 4.8 0.00 0.00 0.00 92 1008.5
20260506094504 23 180 1.6 4.8 0.00 0.00 0.00 92 1008.4
20260506094004 23 169 1.6 4.8 0.00 0.00 0.00 92 1008.4
20260506093504 23 172 1.6 3.2 0.00 0.00 0.00 92 1008.3
20260506093004 23 177 1.6 4.8 0.00 0.00 0.00 92 1008.3
20260506092504 23 183 1.6 4.8 0.00 0.00 0.00 92 1008.4
20260506092004 23 179 1.6 4.8 0.00 0.00 0.00 91 1008.4
20260506091504 23 173 1.6 4.8 0.00 0.00 0.00 91 1008.3
20260506091004 23 166 1.6 3.2 0.00 0.00 0.00 91 1008.4
20260506090525 23 169 1.6 3.2 0.00 0.00 0.00 91 1008.5
20260506090004 23 180 1.6 3.2 0.00 0.00 0.00 91 1008.5
20260506085504 23 182 1.6 4.8 0.00 0.00 0.00 91 1008.4
20260506085004 23 181 1.6 4.8 0.00 0.00 0.00 91 1008.5
20260506084504 23 173 1.6 3.2 0.00 0.00 0.00 91 1008.5
20260506084004 23 174 1.6 3.2 0.00 0.00 0.00 91 1008.5
20260506083504 23 181 1.6 3.2 0.00 0.00 0.00 91 1008.5
20260506083004 23 183 0.0 3.2 0.00 0.00 0.00 91 1008.5
20260506082504 23 190 1.6 3.2 0.00 0.00 0.00 91 1008.4
20260506082004 23 185 1.6 3.2 0.00 0.00 0.00 91 1008.4
20260506081505 23 170 1.6 3.2 0.00 0.00 0.00 91 1008.4
20260506081025 23 176 1.6 3.2 0.00 0.00 0.00 91 1008.4
20260506080504 23 173 1.6 4.8 0.00 0.00 0.00 91 1008.4
20260506073504 23 162 1.6 6.4 0.00 0.00 0.00 91 1008.5
20260506073004 23 169 1.6 4.8 0.00 0.00 0.00 91 1008.7
20260506072505 23 183 1.6 4.8 0.00 0.00 0.00 91 1008.7
20260506072004 23 174 1.6 6.4 0.00 0.00 0.00 91 1008.6
20260506071525 23 160 1.6 6.4 0.00 0.00 0.00 91 1008.5
20260506071004 23 160 1.6 3.2 0.00 0.00 0.00 91 1008.7
20260506070504 23 158 1.6 3.2 0.00 0.00 0.00 91 1008.7
20260506062504 23 178 1.6 4.8 0.00 0.00 0.00 91 1008.8
20260506062004 23 183 3.2 4.8 0.00 0.00 0.00 91 1008.8
20260506061504 23 182 3.2 4.8 0.00 0.00 0.00 91 1008.7
20260506061004 23 182 3.2 4.8 0.00 0.00 0.00 90 1008.7
20260506060504 23 184 1.6 6.4 0.00 0.00 0.00 90 1008.8
20260506051004 24 180 3.2 8.0 0.00 0.00 0.00 90 1008.6
20260506050504 24 179 3.2 11.3 0.00 0.00 0.00 89 1008.6
20260506045004 24 171 3.2 8.0 0.00 0.00 0.00 89 1008.6
20260506044504 24 179 1.6 6.4 0.00 0.00 0.00 89 1008.7
20260506044004 24 189 1.6 4.8 0.00 0.00 0.00 89 1008.7
20260506043504 24 182 1.6 6.4 0.00 0.00 0.00 89 1008.6
20260506043004 24 171 1.6 8.0 0.00 0.00 0.00 89 1008.6
20260506042525 24 165 1.6 8.0 0.00 0.00 0.00 89 1008.6
20260506042004 24 167 1.6 4.8 0.00 0.00 0.00 89 1008.6
20260506041525 24 176 1.6 4.8 0.00 0.00 0.00 89 1008.6
20260506041004 24 178 1.6 4.8 0.00 0.00 0.00 89 1008.4
20260506040504 24 179 1.6 4.8 0.00 0.00 0.00 89 1008.3
20260506040004 24 177 3.2 6.4 0.00 0.00 0.00 89 1008.4
20260506035504 24 174 3.2 8.0 0.00 0.00 0.00 89 1008.4
20260506035004 24 175 3.2 9.7 0.00 0.00 0.00 89 1008.3
20260506034504 24 176 3.2 9.7 0.00 0.00 0.00 89 1008.2
20260506034004 24 177 3.2 9.7 0.00 0.00 0.00 89 1008.2
20260506033504 24 175 3.2 8.0 0.00 0.00 0.00 89 1008.1
20260506033004 24 168 1.6 8.0 0.00 0.00 0.00 89 1008.1
20260506032504 24 174 3.2 9.7 0.00 0.00 0.00 89 1008.0
20260506032004 24 180 3.2 9.7 0.00 0.00 0.00 89 1008.0
20260506031504 24 181 3.2 6.4 0.00 0.00 0.00 88 1007.9
20260506031004 24 181 3.2 6.4 0.00 0.00 0.00 88 1007.7
20260506030504 24 177 3.2 6.4 0.00 0.00 0.00 88 1007.7
20260506030005 24 180 3.2 6.4 0.00 0.00 0.00 88 1007.5
20260506025504 24 171 4.8 14.5 0.00 0.00 0.00 88 1007.3
20260506025004 24 174 4.8 14.5 0.00 0.00 0.00 88 1007.3
20260506024504 24 178 4.8 17.7 0.00 0.00 0.00 88 1007.2
20260506024004 24 175 4.8 17.7 0.00 0.00 0.00 88 1007.1
20260506023504 24 175 4.8 9.7 0.00 0.00 0.00 87 1007.1
20260506023004 24 170 4.8 14.5 0.00 0.00 0.00 88 1007.1
20260506022504 24 176 3.2 14.5 0.00 0.00 0.00 88 1007.1
20260506022004 25 176 3.2 14.5 0.00 0.00 0.00 88 1007.0
20260506021504 25 170 4.8 14.5 0.00 0.00 0.00 87 1007.0
20260506021004 25 172 3.2 8.0 0.00 0.00 0.00 87 1006.9
20260506020504 25 176 3.2 9.7 0.00 0.00 0.00 87 1006.9
20260506020004 25 178 3.2 9.7 0.00 0.00 0.00 87 1006.9
20260506015504 25 185 3.2 6.4 0.00 0.00 0.00 87 1006.7
20260506015004 25 186 3.2 6.4 0.00 0.00 0.00 87 1006.6
20260506014504 25 181 1.6 6.4 0.00 0.00 0.00 87 1006.6
20260506014025 25 182 1.6 4.8 0.00 0.00 0.00 87 1006.5
20260506013504 25 185 3.2 9.7 0.00 0.00 0.00 86 1006.4
20260506013004 25 183 3.2 9.7 0.00 0.00 0.00 86 1006.3
20260506012525 25 177 3.2 6.4 0.00 0.00 0.00 86 1006.2
20260506012004 25 175 3.2 12.9 0.00 0.00 0.00 86 1006.2
20260506011504 25 181 3.2 12.9 0.00 0.00 0.00 86 1006.1
20260506011004 25 182 3.2 11.3 0.00 0.00 0.00 86 1006.0
20260506010504 25 172 3.2 12.9 0.00 0.00 0.00 85 1005.9
20260506010004 25 173 3.2 12.9 0.00 0.00 0.00 85 1005.9
20260506005504 26 169 4.8 17.7 0.00 0.00 0.00 85 1005.8
20260506005004 26 167 4.8 17.7 0.00 0.00 0.00 84 1005.7
20260506004504 26 170 6.4 14.5 0.00 0.00 0.00 84 1005.7
20260506004004 26 171 4.8 14.5 0.00 0.00 0.00 84 1005.5
20260506003504 26 176 3.2 11.3 0.00 0.00 0.00 83 1005.4
20260506003004 26 179 3.2 11.3 0.00 0.00 0.00 83 1005.4
20260506002504 26 174 3.2 8.0 0.00 0.00 0.00 83 1005.5
20260506002004 26 166 3.2 16.1 0.00 0.00 0.00 82 1005.4
20260506001507 26 172 4.8 16.1 0.00 0.00 0.00 81 1005.5
20260506001025 27 173 4.8 16.1 0.00 0.00 0.00 81 1005.6
20260506000524 27 177 4.8 11.3 0.00 0.00 0.00 81 1005.5
20260506000004 27 179 4.8 11.3 0.00 0.00 0.00 80 1005.6
20260505235504 27 166 6.4 14.5 0.00 0.00 0.00 79 1005.7
20260505235003 27 166 6.4 14.5 0.00 0.00 0.00 79 1005.6
20260505234503 27 173 6.4 12.9 0.00 0.00 0.00 78 1005.5
20260505234003 27 167 4.8 14.5 0.00 0.00 0.00 78 1005.5
20260505233525 28 167 4.8 14.5 0.00 0.00 0.00 77 1005.5
20260505233004 28 171 4.8 14.5 0.00 0.00 0.00 77 1005.5
20260505232504 28 177 3.2 12.9 0.00 0.00 0.00 77 1005.4
20260505232004 28 182 3.2 9.7 0.00 0.00 0.00 77 1005.6
20260505231525 28 182 4.8 9.7 0.00 0.00 0.00 76 1005.6
20260505231004 28 180 4.8 9.7 0.00 0.00 0.00 77 1005.7
20260505230504 28 176 4.8 9.7 0.00 0.00 0.00 77 1005.7
20260505230004 28 181 4.8 12.9 0.00 0.00 0.00 76 1005.8
20260505225504 28 194 4.8 12.9 0.00 0.00 0.00 75 1005.9
20260505225004 28 188 4.8 9.7 0.00 0.00 0.00 75 1005.9
20260505224504 28 170 4.8 19.3 0.00 0.00 0.00 75 1005.7
20260505224004 28 173 4.8 19.3 0.00 0.00 0.00 74 1005.8
20260505223525 28 186 4.8 12.9 0.00 0.00 0.00 74 1005.8
20260505223004 29 180 4.8 12.9 0.00 0.00 0.00 73 1005.8
20260505222525 29 179 6.4 14.5 0.00 0.00 0.00 73 1005.8
20260505222004 29 184 6.4 14.5 0.00 0.00 0.00 72 1005.8
20260505221503 29 184 6.4 14.5 0.00 0.00 0.00 73 1005.7
20260505221004 28 183 4.8 11.3 0.00 0.00 0.00 74 1005.7
20260505220503 28 185 4.8 12.9 0.00 0.00 0.00 74 1005.8
20260505220004 29 185 6.4 16.1 0.00 0.00 0.00 72 1005.8
20260505215504 30 179 6.4 16.1 0.00 0.00 0.00 71 1005.8
20260505215003 30 184 6.4 16.1 0.00 0.00 0.00 71 1005.8
20260505214504 30 185 6.4 22.5 0.00 0.00 0.00 70 1005.7
20260505214004 30 177 6.4 22.5 0.00 0.00 0.00 70 1005.7
20260505213524 30 188 6.4 12.9 0.00 0.00 0.00 71 1005.6
20260505213003 30 195 6.4 12.9 0.00 0.00 0.00 71 1005.8
20260505212504 30 193 4.8 12.9 0.00 0.00 0.00 70 1005.8
20260505212003 30 197 4.8 11.3 0.00 0.00 0.00 71 1005.9
20260505211504 30 188 6.4 12.9 0.00 0.00 0.00 68 1006.0
20260505211004 31 176 6.4 16.1 0.00 0.00 0.00 68 1006.1
20260505210525 31 175 6.4 16.1 0.00 0.00 0.00 68 1006.1
20260505210004 30 185 6.4 14.5 0.00 0.00 0.00 70 1006.2
20260505205503 30 189 6.4 14.5 0.00 0.00 0.00 70 1006.3
20260505205024 30 188 8.0 19.3 0.00 0.00 0.00 71 1006.5
20260505204504 29 186 8.0 19.3 0.00 0.00 0.00 71 1006.5
20260505204003 30 186 6.4 14.5 0.00 0.00 0.00 71 1006.6
20260505203503 29 197 4.8 12.9 0.00 0.00 0.00 72 1006.6
20260505203025 30 194 6.4 14.5 0.00 0.00 0.00 71 1006.8
20260505202503 30 196 6.4 14.5 0.00 0.00 0.00 70 1006.8
20260505202024 28 210 6.4 16.1 0.00 0.00 0.00 72 1006.9
20260505201504 30 204 6.4 16.1 0.00 0.00 0.00 71 1006.9
20260505201004 30 187 6.4 17.7 0.00 0.00 0.00 70 1006.9
20260505200504 30 167 6.4 17.7 0.00 0.00 0.00 70 1007.1
20260505200003 30 163 6.4 19.3 0.00 0.00 0.00 69 1007.0
20260505195504 30 179 6.4 19.3 0.00 0.00 0.00 71 1007.1
20260505195024 30 184 6.4 12.9 0.00 0.00 0.00 71 1007.1
20260505194503 30 177 6.4 16.1 0.00 0.00 0.00 72 1007.2
20260505194003 30 177 6.4 17.7 0.00 0.00 0.00 71 1007.2
20260505193503 29 200 6.4 17.7 0.00 0.00 0.00 72 1007.4
20260505193003 30 208 6.4 17.7 0.00 0.00 0.00 70 1007.5
20260505192504 30 193 6.4 17.7 0.00 0.00 0.00 71 1007.5
20260505192024 30 194 6.4 16.1 0.00 0.00 0.00 74 1007.6
20260505191503 28 199 6.4 20.9 0.00 0.00 0.00 74 1007.5
20260505191003 28 200 8.0 20.9 0.00 0.00 0.00 74 1007.6
20260505190503 28 194 6.4 19.3 0.00 0.00 0.00 74 1007.7
20260505190004 29 188 6.4 19.3 0.00 0.00 0.00 72 1007.7
20260505185503 29 187 6.4 16.1 0.00 0.00 0.00 72 1007.7
20260505185003 28 187 6.4 16.1 0.00 0.00 0.00 73 1007.7
20260505184524 28 191 6.4 16.1 0.00 0.00 0.00 74 1007.8
20260505184003 28 195 6.4 14.5 0.00 0.00 0.00 74 1007.7
20260505183503 28 201 6.4 12.9 0.00 0.00 0.00 76 1007.9
20260505183003 27 206 6.4 14.5 0.00 0.00 0.00 76 1008.0
20260505182503 27 196 6.4 14.5 0.00 0.00 0.00 76 1008.0
20260505182003 27 192 6.4 12.9 0.00 0.00 0.00 77 1008.0
20260505181503 27 213 6.4 12.9 0.00 0.00 0.00 77 1007.9
20260505181003 27 210 4.8 12.9 0.00 0.00 0.00 76 1007.9
20260505180503 28 193 4.8 12.9 0.00 0.00 0.00 76 1007.9
20260505180003 27 203 4.8 14.5 0.00 0.00 0.00 77 1007.8
20260505175503 27 203 4.8 14.5 0.00 0.00 0.00 77 1007.8
20260505175003 26 198 4.8 14.5 0.00 0.00 0.00 79 1007.9
20260505174503 26 184 4.8 14.5 0.00 0.00 0.00 79 1008.0
20260505174024 26 171 4.8 11.3 0.00 0.00 0.00 79 1008.1
20260505173503 26 174 4.8 14.5 0.00 0.00 0.00 79 1008.1
20260505173004 26 175 4.8 14.5 0.00 0.00 0.00 79 1008.2
20260505172524 26 174 4.8 14.5 0.00 0.00 0.00 81 1008.2
20260505172003 26 184 4.8 16.1 0.00 0.00 0.00 82 1008.3
20260505171503 25 194 4.8 16.1 0.00 0.00 0.00 82 1008.3
20260505171003 25 194 3.2 11.3 0.00 0.00 0.00 82 1008.4
20260505170503 25 195 4.8 9.7 0.00 0.00 0.00 82 1008.5
20260505170024 25 205 4.8 11.3 0.00 0.00 0.00 81 1008.5
20260505165503 26 196 4.8 11.3 0.00 0.00 0.00 81 1008.5
20260505165003 26 186 4.8 11.3 0.00 0.00 0.00 81 1008.4
20260505164503 26 186 4.8 11.3 0.00 0.00 0.00 82 1008.4
20260505164003 25 189 3.2 11.3 0.00 0.00 0.00 83 1008.5
20260505163524 25 184 3.2 6.4 0.00 0.00 0.00 85 1008.5
20260505163024 24 183 3.2 8.0 0.00 0.00 0.00 85 1008.6
20260505162503 24 182 3.2 8.0 0.00 0.00 0.00 85 1008.8
20260505162003 24 182 3.2 11.3 0.00 0.00 0.00 85 1008.8
20260505161524 24 186 3.2 11.3 0.00 0.00 0.00 85 1008.9
20260505161003 24 186 3.2 11.3 0.00 0.00 0.00 85 1008.8
20260505160503 24 191 3.2 9.7 0.00 0.00 0.00 86 1008.8
20260505153003 23 185 4.8 12.9 0.00 0.00 0.00 85 1008.2
20260505152503 23 189 3.2 8.0 0.00 0.00 0.00 85 1008.3
20260505152024 23 193 3.2 8.0 0.00 0.00 0.00 86 1008.4
20260505151503 23 196 3.2 8.0 0.00 0.00 0.00 85 1008.3
20260505151024 23 191 3.2 8.0 0.00 0.00 0.00 85 1008.3
20260505150503 23 179 4.8 11.3 0.00 0.00 0.00 86 1008.4
20260505140504 22 184 3.2 8.0 0.00 0.00 0.00 89 1008.4
20260505125004 20 183 3.2 4.8 0.00 0.00 0.00 92 1008.4
20260505124525 20 183 3.2 6.4 0.00 0.00 0.00 92 1008.3
20260505124004 20 192 3.2 8.0 0.00 0.00 0.00 92 1008.3
20260505123525 20 189 3.2 9.7 0.00 0.00 0.00 92 1008.2
20260505123004 20 177 3.2 9.7 0.00 0.00 0.00 92 1008.1
20260505122504 20 185 3.2 8.0 0.00 0.00 0.00 92 1008.0
20260505122004 20 188 3.2 6.4 0.00 0.00 0.00 92 1007.8
20260505121504 20 181 3.2 6.4 0.00 0.00 0.00 92 1007.8
20260505121025 20 187 3.2 6.4 0.00 0.00 0.00 92 1007.9
20260505120504 20 185 3.2 8.0 0.00 0.00 0.00 92 1008.0
20260505120005 20 183 3.2 8.0 0.00 0.00 0.00 92 1008.0
20260505115504 20 182 3.2 8.0 0.00 0.00 0.00 92 1008.1
20260505115004 20 187 3.2 6.4 0.00 0.00 0.00 92 1008.1
20260505114504 20 196 3.2 4.8 0.00 0.00 0.00 92 1008.0
20260505114004 20 191 3.2 6.4 0.00 0.00 0.00 92 1008.0
20260505113504 20 184 3.2 6.4 0.00 0.00 0.00 91 1007.7
20260505113004 20 182 3.2 11.3 0.00 0.00 0.00 91 1007.7
20260505112504 20 181 3.2 11.3 0.00 0.00 0.00 91 1007.7
20260505112004 20 182 3.2 9.7 0.00 0.00 0.00 91 1007.8
20260505111504 20 184 4.8 9.7 0.00 0.00 0.00 91 1007.7
20260505111004 20 184 4.8 8.0 0.00 0.00 0.00 91 1007.7